Location: Bennetts Corners
(41.2764°N, 81.7851°W)
Time: 04:40:35
(UTC+00:00)

Daily predictions for brighter satellites

Satellite Brightness Start Highest point End
(mag) Time Altitude Azimuth Time Altitude Azimuth Time Altitude Azimuth
ISS -2.1 00:00:15 10° NW 00:02:04 27° NNW 00:02:04 27° NNW
Cosmos 2266 Rocket 4.0 00:00:01 10° N 00:06:21 63° E 00:12:42 10° SSE
SL-16 R/B 3.3 00:01:50 10° N 00:05:04 28° NNE 00:05:04 28° NNE
Cosmos 2082 Rocket 3.1 00:02:18 10° SW 00:07:44 46° WNW 00:11:58 16° N
ATLAS 5 CENTAUR R/B 3.6 00:05:14 10° NNW 00:08:17 23° N 00:08:17 23° N
Meteor 2-15 Rocket 4.3 00:06:59 10° S 00:13:03 72° E 00:15:51 34° NNE
Cosmos 1328 Rocket 4.3 00:12:45 10° SSW 00:17:04 51° W 00:19:18 26° NNW
CZ-2C R/B 3.3 00:17:38 10° SW 00:19:38 19° S 00:19:38 19° S
Cosmos 2278 3.9 00:15:21 10° NNW 00:21:02 69° WSW 00:26:40 10° SSE
Meteor 1-27 Rocket 4.4 00:15:39 10° S 00:19:10 39° SSE 00:19:10 39° SSE
Lacrosse 5 rocket 3.6 00:18:04 10° NNW 00:18:55 15° NNW 00:18:55 15° NNW
ARGOS 4.1 00:22:07 10° S 00:27:17 46° W 00:32:30 10° NNW
IRAS Rocket 4.3 00:28:34 64° SSE 00:28:34 64° SSE 00:33:18 10° S
COSMOS 2455 4.4 00:28:03 10° WSW 00:33:15 30° NW 00:36:35 18° N
Cosmos 1655 Rocket 4.2 00:32:34 10° NNW 00:38:57 71° W 00:45:15 10° S
DMSP B5D2-2 4.3 00:40:33 67° W 00:40:33 67° W 00:45:30 10° SSW
GEOS 3 Rocket 4.3 00:46:40 48° NW 00:46:40 48° NW 00:50:22 10° NW
CZ-4C R/B 3.9 01:09:49 10° NW 01:17:02 47° WSW 01:21:47 25° S
CENTAUR R/B 4.3 08:51:33 26° NE 08:51:33 26° NE 08:54:28 10° NE
Cosmos 2344 4.1 09:14:06 47° NNE 09:14:06 47° NNE 09:19:19 10° NE
USA 238 DEB 3.9 09:40:07 59° NNE 09:40:07 59° NNE 09:45:33 10° NE
USA 238 3.9 09:40:11 60° NNE 09:40:11 60° NNE 09:45:39 10° NE
Meteor 2-3 Rocket 4.5 09:40:23 47° NE 09:40:23 47° NE 09:44:42 10° NNE
BREEZE-M DEB (TANK) 3.7 09:43:04 55° ENE 09:43:04 55° ENE 09:52:21 10° ESE
USA 215 4.3 09:43:08 10° E 09:48:57 36° NNE 09:50:35 31° N
Cosmos 1241 Rocket 4.5 09:49:44 71° NE 09:50:01 73° ENE 09:56:12 10° SE
Cosmos 921 Rocket 4.4 09:53:48 37° ENE 09:53:48 37° ENE 09:57:56 10° SE
H-2A R/B 4.5 09:56:55 10° NNE 10:00:16 31° E 10:03:38 10° SSE
Cosmos 1867 3.9 10:03:11 56° S 10:03:11 56° S 10:07:30 10° SSE
Cosmos 2208 Rocket 4.1 10:02:49 70° SSE 10:02:49 70° SSE 10:07:30 10° SSE
Cosmos 2369 Rocket 2.3 10:05:54 31° S 10:08:41 74° ESE 10:14:16 10° NNE
Meteor 2-13 Rocket 4.5 10:07:42 10° S 10:13:47 77° E 10:19:54 10° N
Cosmos 1486 Rocket 4.2 10:10:00 10° S 10:15:16 71° ESE 10:20:32 10° NNE
Cosmos 1656 Rocket 3.7 10:19:45 10° SSW 10:25:07 72° ESE 10:30:33 10° NNE
Iridium 2 3.9 10:22:29 10° S 10:26:14 66° E 10:26:47 56° NE
COSMO-SKYMED 1 2.9 10:28:22 10° SSE 10:32:39 65° ENE 10:35:30 21° N
Cosmos 1943 Rocket 3.3 10:35:16 26° NNW 10:35:16 26° NNW 10:38:25 10° N
CZ-2C R/B 2.8 10:28:39 10° SSE 10:34:08 73° ENE 10:39:31 10° N
CENTAUR R/B 3.2 10:38:46 32° NW 10:39:01 32° NW 10:45:19 10° NNE
Envisat 2.9 10:35:28 10° NNE 10:40:34 85° WNW 10:45:39 10° SSW
TSX-5 4.3 10:38:24 33° NNW 10:40:56 80° WSW 10:45:27 10° SSE
Helios 1B 4.5 10:36:50 10° SSE 10:41:09 86° ENE 10:43:43 24° NNW
Cosmos 968 Rocket 4.1 10:45:20 34° NW 10:45:20 34° NW 10:49:06 10° N
Cosmos 2098 Rocket 2.8 10:41:31 10° SSW 10:45:17 72° W 10:50:06 10° N
DELTA 2 R/B (1) 3.8 10:47:13 29° WSW 10:50:03 64° SSE 10:55:32 10° E
Genesis I 3.9 10:52:06 38° WSW 10:52:06 38° WSW 10:55:40 10° S
Cosmos 2279 Rocket 3.9 10:48:00 10° N 10:54:13 88° W 11:00:24 10° S
SKYMED 3 4.5 10:52:27 10° S 10:56:46 67° W 10:59:53 18° NNW
NOSS 3-2 (C) 4.2 11:00:55 27° WNW 11:02:10 29° NW 11:07:45 10° NNE
CZ-4B R/B 4.5 11:02:25 10° E 11:03:43 12° ENE 11:05:02 10° NE
Cosmos 1812 3.0 11:03:50 37° WNW 11:04:32 41° W 11:08:09 10° SSW
CBERS 1 LM4 rocket 4.4 11:01:18 10° N 11:06:05 60° WNW 11:11:04 10° SSW
Cosmos 1515 Rocket 4.2 11:02:31 10° N 11:06:50 57° E 11:11:05 10° SSE
MOS 1-B Rocket 4.3 11:00:58 10° S 11:07:04 44° W 11:12:33 10° NNW
ATLAS 3B R/B 3.8 11:01:10 10° S 11:07:15 45° ESE 11:13:36 10° NE
Cosmos 1354 Rocket 3.9 11:03:29 10° SSW 11:08:45 81° WNW 11:14:05 10° NNE
SJ 16-02 2.5 11:05:39 10° S 11:09:50 46° ESE 11:14:01 10° NNE
Cosmos 1634 Rocket 4.4 11:05:01 10° NNW 11:10:48 40° W 11:16:32 10° SSW
Meteor PRIRODA 4.2 11:08:16 10° NNE 11:11:51 59° E 11:15:25 10° S
ADEOS 3.5 11:09:31 10° NNE 11:14:46 83° WNW 11:19:59 10° SSW
CZ-4B R/B 4.4 11:11:26 10° N 11:15:40 44° WNW 11:19:53 10° SW
Landsat 5 3.8 11:13:21 10° S 11:17:45 53° W 11:22:09 10° NNW
Meteor 2-6 Rocket 4.2 11:12:34 10° NNW 11:17:51 56° W 11:23:06 10° S
CZ-4C R/B 2.7 11:16:49 10° S 11:19:54 58° WSW 11:22:17 16° NNW
SKYMED 2 4.1 11:16:48 10° SSW 11:20:47 36° W 11:24:06 14° NW
SL-8 R/B 3.8 11:17:47 22° NW 11:20:53 70° NNE 11:25:39 10° ESE
ATLAS 5 CENTAUR R/B 1.9 11:17:34 10° SSW 11:21:15 58° ESE 11:25:19 10° NE
Cosmos 1500 Rocket 4.1 11:19:53 10° S 11:24:15 62° E 11:28:41 10° NNE
Meteor 1-31 Rocket 3.5 11:23:19 10° N 11:26:45 30° WNW 11:30:10 10° SW
CZ-2C R/B 3.0 11:22:31 10° NNE 11:27:26 88° E 11:32:34 10° SSW
Meteor 2-15 4.4 11:22:33 10° NNW 11:28:35 72° W 11:34:35 10° S
SJ-7 4.4 11:26:49 10° N 11:30:59 63° WNW 11:35:03 10° SSW
USA 215 3.3 11:24:58 10° SE 11:31:32 85° SW 11:37:55 11° NW
Cosmos 921 Rocket 4.4 11:30:39 18° WNW 11:31:45 19° W 11:34:54 10° SW
Cosmos 1833 4.3 11:27:40 10° NNW 11:33:16 58° WSW 11:38:52 10° S
H-2A R/B 4.2 11:31:38 10° NNW 11:34:45 17° W 11:36:38 10° WSW
COSMOS 2487 4.4 11:31:27 10° N 11:34:19 26° ENE 11:37:10 10° SE
Alouette 2 Rocket 4.1 11:33:49 10° N 11:37:27 50° ENE 11:40:58 10° SSE
H-2A R/B 2.2 11:34:01 10° SSE 11:38:14 75° ENE 11:42:35 10° N
Cosmos 1862 4.5 11:35:31 10° SW 11:38:32 21° WNW 11:41:35 10° NNW
Meteor 1-10 Rocket 4.3 11:33:23 10° NNW 11:38:45 52° W 11:44:05 10° S
Meteor 2-19 Rocket 4.4 11:34:12 10° SSW 11:40:11 64° W 11:46:13 10° N
Cosmos 1151 Rocket 4.4 11:42:45 11° NW 11:45:42 19° W 11:48:47 10° SW
H-2A R/B 3.7 11:42:04 10° NNE 11:46:36 36° E 11:51:08 10° SSE
Cosmos 2297 Rocket 4.1 11:46:05 10° N 11:50:44 25° NE 11:55:21 10° ESE
BREEZE-M DEB (TANK) 3.9 11:41:05 11° WNW 11:52:46 84° SSW 11:56:16 10° SE
Cosmos 2369 Rocket 3.5 11:49:33 10° W 11:53:19 18° NW 11:57:07 10° N
SL-27 R/B 2.6 11:51:27 10° NNW 11:54:56 52° WSW 11:58:22 10° S
